Location: Cork
(51.8990°N, 8.4960°W)
Time: 15:45:40
(UTC+01:00)

Iridium 66 - Visible Passes

Search period start: 26 September 2017 00:00
Search period end: 06 October 2017 00:00
Orbit: 776 x 779 km, 86.4° (Epoch: 25 September)

Date Brightness Start Highest point End Pass type
(mag) Time Alt. Az. Time Alt. Az. Time Alt. Az.
26 Sep 8.2 01:08:32 10° N 01:10:17 22° N 01:10:17 22° N visible
27 Sep 8.2 00:35:00 10° N 00:36:45 21° N 00:36:45 21° N visible
27 Sep 8.7 02:16:39 10° NNW 02:17:12 12° NW 02:17:12 12° NW visible
28 Sep 8.3 00:01:36 10° N 00:03:12 19° NNE 00:03:12 19° NNE visible
28 Sep 8.5 01:42:33 10° NNW 01:43:40 16° NNW 01:43:40 16° NNW visible
28 Sep 8.3 23:28:25 10° NNE 23:29:40 16° NNE 23:29:40 16° NNE visible
29 Sep 8.4 01:08:43 10° NNW 01:10:07 18° NNW 01:10:07 18° NNW visible
29 Sep 8.5 22:55:34 10° NNE 22:56:08 12° NNE 22:56:08 12° NNE visible
30 Sep 8.4 00:35:05 10° N 00:36:35 20° N 00:36:35 20° N visible
01 Oct 8.3 00:01:35 10° N 00:03:03 19° N 00:03:03 19° N visible
01 Oct 8.8 01:42:56 10° NNW 01:43:31 13° NNW 01:43:31 13° NNW visible
01 Oct 8.3 23:28:16 10° N 23:29:32 16° NNE 23:29:32 16° NNE visible
02 Oct 8.6 01:08:58 10° NNW 01:10:00 16° NNW 01:10:00 16° NNW visible
02 Oct 8.4 22:55:11 10° NNE 22:56:00 13° NNE 22:56:00 13° NNE visible
03 Oct 8.5 00:35:13 10° N 00:36:28 18° NNW 00:36:28 18° NNW visible
04 Oct 8.4 00:01:38 10° N 00:02:57 18° N 00:02:57 18° N visible
04 Oct 8.4 23:28:12 10° N 23:29:25 17° NNE 23:29:25 17° NNE visible
05 Oct 8.8 01:09:17 10° NNW 01:09:53 13° NNW 01:09:53 13° NNW visible
05 Oct 8.4 22:54:57 10° NNE 22:55:54 14° NNE 22:55:54 14° NNE visible
